Regional Weather Roundup
Issued by NWS

Home | Current Version | Previous Version | Graphics & Text | Print | Product List | Glossary On
Versions: 1 2 3 4 5 6 7 8 9 10 11 12 13 14 15 16 17 18 19 20 21 22 23 24 25 26 27 28 29 30 31 32 33 34 35 36 37 38 39 40 41 42 43 44 45 46 47 48 49 50
000
ASUS43 KMPX 241110
RWRMN
WEATHER ROUNDUP FOR MINNESOTA
NATIONAL WEATHER SERVICE TWIN CITIES/CHANHASSEN MN
600 AM CDT FRI MAR 24 2017


NOTE: "FAIR" INDICATES FEW OR NO CLOUDS BELOW 12,000 FEET WITH NO
SIGNIFICANT WEATHER AND/OR OBSTRUCTIONS TO VISIBILITY. N/A MEANS
CURRENT SKY AND/OR WEATHER CONDITIONS ARE NOT AVAILABLE.

MNZ060>063-068>070-241200-
   Twin Cities Metro

CITY           SKY/WX    TMP DP  RH WIND       PRES   REMARKS
TWIN CITIES    CLOUDY    39  36  89 N7        29.88R FOG
ST PAUL        CLOUDY    38  38 100 N5        29.89R FOG
CRYSTAL        CLOUDY    37  34  89 N6        29.88R FOG
BLAINE         CLOUDY    37  37 100 N8        29.89R FOG
LAKEVILLE      CLOUDY    37  37 100 N5        29.86S
EDEN PRAIRIE   CLOUDY    39  37  92 N6        29.86R FOG
SOUTH ST PAUL  CLOUDY    39  38  94 N6        29.88R
LAKE ELMO      CLOUDY    37  37 100 N5        29.89R FOG
$$
MNZ001>005-007-008-013>017-022>024-027-028-241200-
   Northwest Minnesota

CITY           SKY/WX    TMP DP  RH WIND       PRES   REMARKS
BEMIDJI        CLOUDY    32  32 100 N9        29.96R FOG     WCI  24
HALLOCK        CLEAR     28  27  93 N10       30.05R WCI  19
ROSEAU         CLOUDY    28  25  86 NW9       30.00R WCI  20
WARROAD        PTCLDY    28  25  86 NW13      29.99R WCI  18
THIEF RVR FALL CLOUDY    32  30  92 N12       30.01R WCI  23
CROOKSTON      CLOUDY    32  32 100 N13G18    30.02R WCI  22
FOSSTON        CLOUDY    30  30 100 N15       29.98R FOG     WCI  19
DETROIT LAKES  CLOUDY    34  34 100 NW5       29.97R FOG     WCI  30
MOORHEAD       CLOUDY    34  32  93 NW3       30.01R FOG
PARK RAPIDS    CLOUDY    34  31  88 NW3       29.94R FOG
MAHNOMEN       CLOUDY    33  32  98 N9        29.97R FOG     WCI  25
$$
MNZ006-009>011-018-025>026-241200-
   North Central Minnesota

CITY           SKY/WX    TMP DP  RH WIND       PRES   REMARKS
BAUDETTE       CLOUDY    31  28  89 N9        29.95R WCI  23
FLAG ISLAND    PTCLDY    28  25  86 NW14      29.98R WCI  17
INTL FALLS     MOCLDY    32  30  92 NW6       29.93R WCI  26
BIG FORK       CLOUDY    34  34 100 N3        29.92R FOG
LONGVILLE      CLOUDY    32  32 100 CALM      29.94R FOG
GRAND RAPIDS   CLOUDY    32  31  96 NW5       29.94R FOG     WCI  27
CRANE LAKE     CLOUDY    32  30  93 CALM      29.94R FOG
ORR            CLOUDY    32  30  93 CALM      29.89R FOG
COOK           CLOUDY    32  32 100 CALM      29.91R FOG
WALKER         CLOUDY    32  32  99 CALM      29.94R FOG
$$
MNZ012-019>021-037-241200-
   Northeast Minnesota

CITY           SKY/WX    TMP DP  RH WIND       PRES   REMARKS
DULUTH         CLOUDY    33  32  96 NW6       29.90R FOG     WCI  28
ELY            CLOUDY    32  32 100 CALM      29.89S FOG
HIBBING        CLOUDY    32  32 100 CALM      29.91R FOG
EVELETH        CLOUDY    32  32  98 W3        29.91R FOG
DULUTH HARBOR  CLOUDY    34  32  93 CALM      29.94R FOG
TWO HARBORS    CLOUDY    36  30  80 CALM      29.89R FOG
SILVER BAY     FOG       34  34 100 CALM      29.88R VSB 1
GRAND MARAIS     N/A     33  32  96 W5        29.91R WCI  29
G MARAIS ARPRT CLOUDY    30  27  86 NW5       29.87R FOG     WCI  25
$$
MNZ029>031-032-039>041-046>048-054>057-064-241200-
   West Central Minnesota

CITY           SKY/WX    TMP DP  RH WIND       PRES   REMARKS
FERGUS FALLS   CLOUDY    34  34 100 N5        30.01R FOG     WCI  30
WHEATON        CLOUDY    34  32  93 NW7       29.98R FOG     WCI  28
MORRIS         CLOUDY    34  34 100 N9        29.92R FOG     WCI  26
ALEXANDRIA     CLOUDY    34  33  96 N9        29.92R WCI  27
ELBOW LAKE     CLOUDY    33  33 100 N8        29.96R FOG     WCI  25
WADENA         CLOUDY    32  32 100 N5        29.94R FOG     WCI  27
GLENWOOD       CLOUDY    34  34 100 N7        29.91R FOG     WCI  28
APPLETON       CLOUDY    36  34  93 N6        29.92R FOG
BENSON         CLOUDY    37  34  87 NE6       29.93R FOG
ORTONVILLE     CLOUDY    34  32  93 N9        29.93R FOG     WCI  26
MADISON        FOG       37  37 100 N7        29.92R VSB 1
WILLMAR        CLOUDY    36  36 100 NE7       29.90R FOG
$$
MNZ033>034-036-042>043-049>051-058-059-241200-
   Central Minnesota

CITY           SKY/WX    TMP DP  RH WIND       PRES   REMARKS
ST CLOUD       CLOUDY    35  34  96 NE3       29.89R
SAUK CENTRE    CLOUDY    33  33  99 N7        29.91R FOG     WCI  27
PAYNESVILLE      N/A     34  34 100 N7        29.90R FOG     WCI  28
AITKIN         CLOUDY    36  30  80 CALM      29.91R FOG
PINE RIVER     CLOUDY    32  32 100 NW3       29.97R FOG
BRAINERD       CLOUDY    33  32  96 N5        29.93R FOG     WCI  29
STAPLES        CLOUDY    32  32 100 N3        29.94R FOG
LONG PRAIRIE   CLOUDY    32  32 100 NW7       29.92R FOG     WCI  26
LITTLE FALLS   CLOUDY    32  32 100 CALM      29.92R FOG
LITCHFIELD     DRIZZLE   36  36 100 NE6       29.90R
BUFFALO        CLOUDY    36  34  94 N5        29.90R FOG
MAPLE LAKE     RAIN      36  36  99 NE5       29.90R
HUTCHINSON     DRIZZLE   37  37  99 N7        29.88F
$$
MNZ037-044-045-052-053-241200-
   East Central Minnesota

CITY           SKY/WX    TMP DP  RH WIND       PRES   REMARKS
PRINCETON      CLOUDY    36  34  93 NE5       29.90R FOG
MORA           CLOUDY    32  32 100 NE3       29.91F FOG
CAMBRIDGE      CLOUDY    36  34  93 NE3       29.89R FOG
RUSH CITY      CLOUDY    33  32  96 N5        29.91R FOG     WCI  29
MOOSE LAKE     CLOUDY    32  32 100 CALM      29.91R FOG
HINCKLEY       CLOUDY    34  34 100 N5        29.91S FOG     WCI  30
CLOQUET        CLOUDY    34  30  86 CALM      29.91R FOG
MCGREGOR       CLOUDY    32  32 100 CALM      29.92R
$$
MNZ071>073-080-081-089-090-097-098-241200-
   Southwest Minnesota

CITY           SKY/WX    TMP DP  RH WIND       PRES   REMARKS
MONTEVIDEO     CLOUDY    36  36 100 NE8       29.92R FOG
GRANITE FALLS  CLOUDY    37  36  96 N9        29.91R FOG
CANBY          FOG       35  35  99 CALM      29.92R VSB 1/2
MARSHALL       MIX PCPN  35  34  96 N10       29.90R FOG     WCI  27
REDWOOD FALLS  CLOUDY    37  35  92 N8        29.88R FOG
OLIVIA         CLOUDY    36  34  93 N8        29.88R FOG
PIPESTONE      CLOUDY    36  32  87 NE13      29.84R FOG
WINDOM         FOG       37  37 100 N10       29.84R VSB 1/4
WORTHINGTON    LGT RAIN  36  36 100 N16       29.83S VSB 1/4
JACKSON        DRIZZLE   36  36 100 VRB8      29.83R
TRACY          DRZL/FOG  36  36 100 N10       29.87R VSB 1/2
SLAYTON        FOG       34  34 100 N13       29.85S VSB 1/2 WCI  25
$$
MNZ065>067-074>077-082>085-091>093-241200-
   South Central Minnesota

CITY           SKY/WX    TMP DP  RH WIND       PRES   REMARKS
MANKATO        LGT RAIN  38  37  97 NE8       29.84S FOG
NEW ULM        CLOUDY    37  36  93 N6        29.87R FOG
ST JAMES       CLOUDY    37  37 100 CALM      29.87R FOG
FAIRMONT       LGT RAIN  39  38  96 N12       29.82R FOG
GLENCOE        CLOUDY    37  38 100 N9        29.86F FOG
FARIBAULT      DRIZZLE   37  37 100 N5        29.85R
OWATONNA       RAIN      37  36  93 NE6       29.84R
WASECA         DRIZZLE   36  36 100 NE10      29.83F
ALBERT LEA     MIX PCPN  39  39 100 N6        29.80R
$$
MNZ078>079-086>088-094>096-241200-
   Southeast Minnesota

CITY           SKY/WX    TMP DP  RH WIND       PRES   REMARKS
ROCHESTER      CLOUDY    38  37  97 N12       29.80R FOG
RED WING       LGT RAIN  39  37  93 CALM      29.86R
STANTON        RAIN      38  36  91 N6        29.85R
DODGE CENTER   LGT RAIN  37  36  93 NW8       29.84R
WINONA         CLOUDY    37  37 100 CALM      29.83S FOG
AUSTIN         CLOUDY    41  39  93 N7        29.79R FOG
PRESTON        CLOUDY    39  37  92 E3        29.78S FOG
$$
ABBREVIATIONS USED IN REMARKS
   TC - TEMPERATURES IN CELSIUS
  WCI - WIND CHILL INDEX
   HX - HEAT INDEX
  VSB - VISIBILITY
$$




USA.gov is the U.S. government's official web portal to all federal, state and local government web resources and services.